Hebron, KY

11:53 AM EST on February 06, 2016 (GMT -0500)
Cincinnati-Northern KY International

Weather History for KCVG - September, 2013

Change the Weather History Date:

Thursday, September 12, 2013

  Actual Average Record
Temperature  
Mean Temperature 73 °F 69 °F  
Max Temperature 80 °F 80 °F 96 °F (1897)
Min Temperature 66 °F 59 °F 42 °F (1917)
Degree Days  
Heating Degree Days 0 1  
Month to date heating degree days 0 6  
Since 1 July heating degree days 4 6  
Cooling Degree Days 8 5  
Month to date cooling degree days 113 80  
Year to date cooling degree days 1089 1048  
Growing Degree Days 24 (Base 50)    
Moisture  
Dew Point 70 °F    
Average Humidity 85    
Maximum Humidity 100    
Minimum Humidity 69    
Precipitation  
Precipitation 0.10 in 0.08 in 1.83 in (2006)
Month to date precipitation 0.11 1.05  
Year to date precipitation 33.16 30.84  
Snow  
Snow 0.00 in 0.00 in 0.00 in ()
Month to date snowfall 0.0 0.0  
Since 1 July snowfall 0.0 0.0  
Since 1 September snowfall 0.0 0.0  
Snow Depth 0.00 in    
Sea Level Pressure  
Sea Level Pressure 29.96 in    
Wind  
Wind Speed 8 mph (WSW)    
Max Wind Speed 29 mph    
Max Gust Speed 37 mph    
Visibility 6 miles    
Events Rain    
T = Trace of Precipitation, MM = Missing Value Source: NWS Daily Summary

Daily Weather History Graph

Daily Weather History Graph

Search for Another Location

Airport or City:

Trip Planner

Search our weather history database for the weather conditions in past years. The results will help you decide how hot, cold, wet, or windy it might be!

Date:

Astronomy

Sep. 12, 2013 Rise Set
Actual Time 7:17 AM EDT 7:51 PM EDT
Civil Twilight 6:50 AM EDT 8:18 PM EDT
Nautical Twilight 6:18 AM EDT 8:49 PM EDT
Astronomical Twilight 5:46 AM EDT 9:22 PM EDT
Moon 2:41 PM EDT (9/12) No Moon Set
Length of Visible Light 13h 27m
Length of Day
12h 33m
Waxing Crescent, 50% of the Moon is Illuminated
Sep 12
Waxing Crescent
Sep 12
First Quarter
Sep 19
Full
Sep 26
Last Quarter
Oct 4
New

Hourly Weather History & Observations

Time (EDT) Temp. Dew Point Humidity Pressure Visibility Wind Dir Wind Speed Gust Speed Precip Events Conditions
12:52 AM 75.0 °F 72.0 °F 90% 30.01 in 6.0 mi SW 5.8 mph - N/A   Clear
1:52 AM 73.9 °F 73.0 °F 97% 30.01 in 5.0 mi SSW 6.9 mph - N/A   Clear
2:52 AM 73.9 °F 72.0 °F 93% 30.00 in 4.0 mi SW 8.1 mph - N/A   Clear
3:52 AM 73.0 °F 72.0 °F 96% 30.00 in 3.0 mi SW 5.8 mph - N/A   Clear
4:52 AM 72.0 °F 72.0 °F 100% 29.98 in 3.0 mi SW 4.6 mph - N/A   Clear
5:52 AM 72.0 °F 71.1 °F 97% 29.98 in 4.0 mi SW 4.6 mph - N/A   Clear
6:52 AM 71.1 °F 70.0 °F 96% 29.98 in 4.0 mi SSW 5.8 mph - N/A   Scattered Clouds
7:15 AM 71.6 °F 69.8 °F 94% 30.01 in 2.5 mi SW 4.6 mph - N/A   Mostly Cloudy
7:52 AM 71.1 °F 70.0 °F 96% 29.98 in 2.5 mi SSW 3.5 mph - N/A   Mostly Cloudy
8:52 AM 73.0 °F 71.1 °F 93% 29.99 in 3.0 mi WSW 4.6 mph - N/A   Mostly Cloudy
9:52 AM 73.9 °F 71.1 °F 91% 29.98 in 5.0 mi SW 5.8 mph - N/A   Haze
10:12 AM 75.2 °F 71.6 °F 89% 30.02 in 6.0 mi West 8.1 mph - N/A   Haze
10:34 AM 75.2 °F 71.6 °F 89% 30.02 in 5.0 mi West 6.9 mph - N/A   Overcast
10:52 AM 75.0 °F 72.0 °F 90% 30.01 in 5.0 mi West 9.2 mph - N/A   Overcast
11:21 AM 77.0 °F 71.6 °F 83% 30.02 in 5.0 mi NNW 5.8 mph - N/A   Haze
11:52 AM 77.0 °F 71.1 °F 82% 29.99 in 5.0 mi NNW 8.1 mph - N/A   Haze
12:10 PM 73.4 °F 71.6 °F 94% 30.04 in 2.5 mi NNW 15.0 mph 25.3 mph 0.02 in Rain Light Rain
12:25 PM 73.4 °F 71.6 °F 94% 30.03 in 4.0 mi WNW 4.6 mph - 0.07 in Rain Light Rain
12:52 PM 73.9 °F 71.1 °F 91% 29.99 in 6.0 mi West 4.6 mph - 0.07 in Rain Light Rain
1:52 PM 75.0 °F 72.0 °F 90% 29.96 in 10.0 mi SW 8.1 mph - 0.00 in   Overcast
2:52 PM 79.0 °F 70.0 °F 74% 29.93 in 10.0 mi West 13.8 mph - N/A   Mostly Cloudy
3:52 PM 77.0 °F 66.9 °F 71% 29.91 in 10.0 mi WNW 12.7 mph - N/A   Mostly Cloudy
4:52 PM 79.0 °F 69.1 °F 72% 29.89 in 10.0 mi West 11.5 mph - N/A   Mostly Cloudy
5:52 PM 78.1 °F 69.1 °F 74% 29.88 in 10.0 mi West 10.4 mph - N/A   Mostly Cloudy
6:52 PM 77.0 °F 69.1 °F 76% 29.89 in 10.0 mi West 5.8 mph - N/A   Mostly Cloudy
7:52 PM 73.9 °F 69.1 °F 85% 29.88 in 10.0 mi SW 4.6 mph - N/A   Scattered Clouds
8:52 PM 73.9 °F 68.0 °F 82% 29.88 in 10.0 mi SW 5.8 mph - N/A   Mostly Cloudy
9:52 PM 73.0 °F 66.9 °F 81% 29.88 in 10.0 mi SW 6.9 mph - N/A   Overcast
10:52 PM 68.0 °F 64.0 °F 87% 29.90 in 10.0 mi West 8.1 mph - 0.03 in   Mostly Cloudy
11:52 PM 66.9 °F 61.0 °F 81% 29.91 in 10.0 mi WNW 11.5 mph - N/A   Scattered Clouds